Year,Month,Day,Hour,Minute,Value (Times are PST for windspeed in km/hr)
2006,02,04,00,00,7.60
2006,02,04,00,01,5.40
2006,02,04,00,02,4.30
2006,02,04,00,03,5.80
2006,02,04,00,04,5.30
2006,02,04,00,05,7.20
2006,02,04,00,06,7.20
2006,02,04,00,07,6.60
2006,02,04,00,08,4.60
2006,02,04,00,09,5.10
2006,02,04,00,10,4.60
2006,02,04,00,11,7.30
2006,02,04,00,12,5.70
2006,02,04,00,13,6.40
2006,02,04,00,14,8.00
2006,02,04,00,15,8.00
2006,02,04,00,16,5.40
2006,02,04,00,17,6.60
2006,02,04,00,18,5.00
2006,02,04,00,19,5.40
2006,02,04,00,20,4.40
2006,02,04,00,21,5.40
2006,02,04,00,22,6.30
2006,02,04,00,23,4.10
2006,02,04,00,24,4.20
2006,02,04,00,25,2.40
2006,02,04,00,26,1.00
2006,02,04,00,27,5.00
2006,02,04,00,28,4.70
2006,02,04,00,29,2.20
2006,02,04,00,30,1.50
2006,02,04,00,31,1.10
2006,02,04,00,32,0.80
2006,02,04,00,33,2.00
2006,02,04,00,34,2.00
2006,02,04,00,35,0.50
2006,02,04,00,36,0.60
2006,02,04,00,37,0.70
2006,02,04,00,38,0.10
2006,02,04,00,39,0.20
2006,02,04,00,40,2.60
2006,02,04,00,41,0.10
2006,02,04,00,42,3.00
2006,02,04,00,43,0.60
2006,02,04,00,44,2.80
2006,02,04,00,45,1.30
2006,02,04,00,46,1.70
2006,02,04,00,47,3.40
2006,02,04,00,48,1.10
2006,02,04,00,49,2.80
2006,02,04,00,50,4.50
2006,02,04,00,51,1.80
2006,02,04,00,52,1.80
2006,02,04,00,53,3.50
2006,02,04,00,54,2.40
2006,02,04,00,55,0.80
2006,02,04,00,56,0.40
2006,02,04,00,57,1.90
2006,02,04,00,58,1.00
2006,02,04,00,59,1.50
2006,02,04,01,00,0.70
2006,02,04,01,01,0.30
2006,02,04,01,02,1.00
2006,02,04,01,03,2.00
2006,02,04,01,04,1.40
2006,02,04,01,05,0.90
2006,02,04,01,06,0.30
2006,02,04,01,07,0.20
2006,02,04,01,08,0.00
2006,02,04,01,09,1.50
2006,02,04,01,10,1.60
2006,02,04,01,11,0.00
2006,02,04,01,12,0.30
2006,02,04,01,13,1.40
2006,02,04,01,14,2.00
2006,02,04,01,15,0.90
2006,02,04,01,16,0.30
2006,02,04,01,17,0.70
2006,02,04,01,18,1.80
2006,02,04,01,19,0.60
2006,02,04,01,20,0.80
2006,02,04,01,21,1.40
2006,02,04,01,22,0.30
2006,02,04,01,23,0.50
2006,02,04,01,24,0.80
2006,02,04,01,25,0.80
2006,02,04,01,26,0.80
2006,02,04,01,27,0.40
2006,02,04,01,28,0.00
2006,02,04,01,29,0.00
2006,02,04,01,30,0.00
2006,02,04,01,31,0.00
2006,02,04,01,32,1.20
2006,02,04,01,33,3.30
2006,02,04,01,34,2.40
2006,02,04,01,35,3.20
2006,02,04,01,36,1.10
2006,02,04,01,37,1.20
2006,02,04,01,38,3.70
2006,02,04,01,39,1.30
2006,02,04,01,40,2.30
2006,02,04,01,41,1.70
2006,02,04,01,42,2.00
2006,02,04,01,43,2.50
2006,02,04,01,44,3.10
2006,02,04,01,45,3.50
2006,02,04,01,46,4.60
2006,02,04,01,47,2.90
2006,02,04,01,48,3.60
2006,02,04,01,49,6.10
2006,02,04,01,50,6.40
2006,02,04,01,51,3.50
2006,02,04,01,52,3.90
2006,02,04,01,53,2.20
2006,02,04,01,54,4.50
2006,02,04,01,55,5.60
2006,02,04,01,56,2.90
2006,02,04,01,57,1.70
2006,02,04,01,58,1.30
2006,02,04,01,59,3.70
2006,02,04,02,00,2.50
2006,02,04,02,01,1.50
2006,02,04,02,02,0.10
2006,02,04,02,03,0.10
2006,02,04,02,04,0.50
2006,02,04,02,05,2.70
2006,02,04,02,06,3.60
2006,02,04,02,07,4.70
2006,02,04,02,08,4.70
2006,02,04,02,09,6.30
2006,02,04,02,10,1.60
2006,02,04,02,11,3.80
2006,02,04,02,12,5.60
2006,02,04,02,13,0.40
2006,02,04,02,14,0.00
2006,02,04,02,15,0.10
2006,02,04,02,16,1.30
2006,02,04,02,17,1.30
2006,02,04,02,18,0.20
2006,02,04,02,19,0.00
2006,02,04,02,20,0.30
2006,02,04,02,21,1.80
2006,02,04,02,22,2.80
2006,02,04,02,23,2.30
2006,02,04,02,24,0.80
2006,02,04,02,25,1.00
2006,02,04,02,26,0.10
2006,02,04,02,27,0.00
2006,02,04,02,28,0.00
2006,02,04,02,29,0.10
2006,02,04,02,30,0.10
2006,02,04,02,31,0.00
2006,02,04,02,32,0.00
2006,02,04,02,33,0.00
2006,02,04,02,34,0.00
2006,02,04,02,35,0.00
2006,02,04,02,36,0.00
2006,02,04,02,37,0.00
2006,02,04,02,38,0.10
2006,02,04,02,39,0.00
2006,02,04,02,40,0.10
2006,02,04,02,41,1.10
2006,02,04,02,42,0.10
2006,02,04,02,43,0.10
2006,02,04,02,44,2.10
2006,02,04,02,45,4.00
2006,02,04,02,46,4.30
2006,02,04,02,47,2.60
2006,02,04,02,48,6.10
2006,02,04,02,49,5.60
2006,02,04,02,50,5.60
2006,02,04,02,51,2.50
2006,02,04,02,52,1.80
2006,02,04,02,53,4.70
2006,02,04,02,54,6.40
2006,02,04,02,55,7.60
2006,02,04,02,56,6.40
2006,02,04,02,57,5.30
2006,02,04,02,58,2.90
2006,02,04,02,59,6.20
2006,02,04,03,00,5.60
2006,02,04,03,01,6.20
2006,02,04,03,02,4.70
2006,02,04,03,03,5.60
2006,02,04,03,04,4.30
2006,02,04,03,05,5.20
2006,02,04,03,06,3.90
2006,02,04,03,07,2.70
2006,02,04,03,08,9.50
2006,02,04,03,09,10.40
2006,02,04,03,10,9.80
2006,02,04,03,11,11.70
2006,02,04,03,12,12.20
2006,02,04,03,13,8.70
2006,02,04,03,14,8.30
2006,02,04,03,15,7.40
2006,02,04,03,16,3.30
2006,02,04,03,17,6.80
2006,02,04,03,18,6.10
2006,02,04,03,19,6.90
2006,02,04,03,20,9.10
2006,02,04,03,21,9.40
2006,02,04,03,22,9.90
2006,02,04,03,23,0.50
2006,02,04,03,24,9.00
2006,02,04,03,25,4.10
2006,02,04,03,26,4.20
2006,02,04,03,27,5.50
2006,02,04,03,28,4.80
2006,02,04,03,29,3.40
2006,02,04,03,30,6.20
2006,02,04,03,31,6.30
2006,02,04,03,32,7.10
2006,02,04,03,33,2.70
2006,02,04,03,34,1.50
2006,02,04,03,35,1.10
2006,02,04,03,36,3.10
2006,02,04,03,37,2.40
2006,02,04,03,38,2.50
2006,02,04,03,39,2.00
2006,02,04,03,40,4.70
2006,02,04,03,41,3.10
2006,02,04,03,42,1.40
2006,02,04,03,43,0.30
2006,02,04,03,44,0.80
2006,02,04,03,45,0.00
2006,02,04,03,46,2.90
2006,02,04,03,47,0.80
2006,02,04,03,48,3.00
2006,02,04,03,49,2.90
2006,02,04,03,50,1.70
2006,02,04,03,51,3.00
2006,02,04,03,52,2.90
2006,02,04,03,53,2.30
2006,02,04,03,54,1.80
2006,02,04,03,55,1.70
2006,02,04,03,56,1.70
2006,02,04,03,57,4.00
2006,02,04,03,58,2.40
2006,02,04,03,59,7.10
2006,02,04,04,00,3.00
2006,02,04,04,01,8.40
2006,02,04,04,02,5.00
2006,02,04,04,03,2.30
2006,02,04,04,04,3.00
2006,02,04,04,05,3.50
2006,02,04,04,06,4.90
2006,02,04,04,07,4.30
2006,02,04,04,08,3.40
2006,02,04,04,09,5.00
2006,02,04,04,10,4.70
2006,02,04,04,11,5.10
2006,02,04,04,12,4.80
2006,02,04,04,13,3.40
2006,02,04,04,14,5.40
2006,02,04,04,15,4.70
2006,02,04,04,16,3.10
2006,02,04,04,17,2.40
2006,02,04,04,18,3.80
2006,02,04,04,19,2.40
2006,02,04,04,20,3.10
2006,02,04,04,21,1.60
2006,02,04,04,22,2.00
2006,02,04,04,23,1.30
2006,02,04,04,24,2.00
2006,02,04,04,25,2.10
2006,02,04,04,26,2.00
2006,02,04,04,27,0.10
2006,02,04,04,28,0.90
2006,02,04,04,29,1.50
2006,02,04,04,30,6.90
2006,02,04,04,31,2.00
2006,02,04,04,32,4.50
2006,02,04,04,33,2.90
2006,02,04,04,34,7.40
2006,02,04,04,35,2.90
2006,02,04,04,36,6.40
2006,02,04,04,37,4.10
2006,02,04,04,38,3.70
2006,02,04,04,39,4.40
2006,02,04,04,40,3.70
2006,02,04,04,41,6.40
2006,02,04,04,42,3.10
2006,02,04,04,43,6.70
2006,02,04,04,44,6.80
2006,02,04,04,45,4.00
2006,02,04,04,46,5.60
2006,02,04,04,47,3.20
2006,02,04,04,48,4.30
2006,02,04,04,49,4.70
2006,02,04,04,50,5.40
2006,02,04,04,51,5.50
2006,02,04,04,52,4.10
2006,02,04,04,53,3.10
2006,02,04,04,54,3.60
2006,02,04,04,55,3.30
2006,02,04,04,56,5.50
2006,02,04,04,57,3.50
2006,02,04,04,58,5.50
2006,02,04,04,59,5.00
2006,02,04,05,00,3.80
2006,02,04,05,01,2.20
2006,02,04,05,02,3.00
2006,02,04,05,03,4.20
2006,02,04,05,04,1.10
2006,02,04,05,05,2.90
2006,02,04,05,06,3.10
2006,02,04,05,07,4.10
2006,02,04,05,08,3.60
2006,02,04,05,09,1.30
2006,02,04,05,10,2.90
2006,02,04,05,11,2.20
2006,02,04,05,12,3.10
2006,02,04,05,13,5.90
2006,02,04,05,14,5.50
2006,02,04,05,15,2.20
2006,02,04,05,16,3.50
2006,02,04,05,17,3.30
2006,02,04,05,18,1.80
2006,02,04,05,19,4.80
2006,02,04,05,20,5.00
2006,02,04,05,21,5.40
2006,02,04,05,22,5.40
2006,02,04,05,23,4.40
2006,02,04,05,24,4.50
2006,02,04,05,25,6.40
2006,02,04,05,26,2.70
2006,02,04,05,27,3.80
2006,02,04,05,28,4.50
2006,02,04,05,29,7.80
2006,02,04,05,30,5.10
2006,02,04,05,31,3.80
2006,02,04,05,32,3.50
2006,02,04,05,33,2.60
2006,02,04,05,34,3.80
2006,02,04,05,35,4.80
2006,02,04,05,36,3.70
2006,02,04,05,37,8.10
2006,02,04,05,38,5.80
2006,02,04,05,39,6.50
2006,02,04,05,40,4.10
2006,02,04,05,41,3.40
2006,02,04,05,42,5.00
2006,02,04,05,43,5.00
2006,02,04,05,44,4.20
2006,02,04,05,45,2.30
2006,02,04,05,46,3.60
2006,02,04,05,47,4.30
2006,02,04,05,48,2.70
2006,02,04,05,49,0.10
2006,02,04,05,50,1.10
2006,02,04,05,51,1.90
2006,02,04,05,52,2.20
2006,02,04,05,53,2.80
2006,02,04,05,54,1.00
2006,02,04,05,55,3.60
2006,02,04,05,56,2.30
2006,02,04,05,57,2.00
2006,02,04,05,58,3.60
2006,02,04,05,59,4.10
2006,02,04,06,00,6.20
2006,02,04,06,01,3.60
2006,02,04,06,02,3.50
2006,02,04,06,03,5.20
2006,02,04,06,04,3.90
2006,02,04,06,05,3.70
2006,02,04,06,06,2.90
2006,02,04,06,07,5.00
2006,02,04,06,08,2.60
2006,02,04,06,09,1.90
2006,02,04,06,10,1.10
2006,02,04,06,11,1.60
2006,02,04,06,12,1.80
2006,02,04,06,13,1.50
2006,02,04,06,14,3.40
2006,02,04,06,15,2.10
2006,02,04,06,16,1.20
2006,02,04,06,17,2.00
2006,02,04,06,18,2.50
2006,02,04,06,19,2.20
2006,02,04,06,20,2.60
2006,02,04,06,21,2.80
2006,02,04,06,22,1.70
2006,02,04,06,23,3.80
2006,02,04,06,24,3.30
2006,02,04,06,25,4.60
2006,02,04,06,26,1.90
2006,02,04,06,27,4.90
2006,02,04,06,28,4.80
2006,02,04,06,29,3.40
2006,02,04,06,30,3.60
2006,02,04,06,31,4.00
2006,02,04,06,32,3.80
2006,02,04,06,33,3.40
2006,02,04,06,34,3.10
2006,02,04,06,35,2.30
2006,02,04,06,36,3.10
2006,02,04,06,37,3.40
2006,02,04,06,38,1.90
2006,02,04,06,39,1.90
2006,02,04,06,40,1.60
2006,02,04,06,41,3.90
2006,02,04,06,42,2.80
2006,02,04,06,43,2.40
2006,02,04,06,44,5.50
2006,02,04,06,45,3.30
2006,02,04,06,46,5.00
2006,02,04,06,47,6.80
2006,02,04,06,48,4.80
2006,02,04,06,49,5.20
2006,02,04,06,50,5.00
2006,02,04,06,51,5.20
2006,02,04,06,52,6.20
2006,02,04,06,53,6.50
2006,02,04,06,54,5.00
2006,02,04,06,55,3.70
2006,02,04,06,56,4.30
2006,02,04,06,57,6.20
2006,02,04,06,58,1.80
2006,02,04,06,59,1.80
2006,02,04,07,00,3.40
2006,02,04,07,01,2.60
2006,02,04,07,02,4.30
2006,02,04,07,03,4.30
2006,02,04,07,04,4.40
2006,02,04,07,05,7.60
2006,02,04,07,06,2.50
2006,02,04,07,07,5.00
2006,02,04,07,08,6.60
2006,02,04,07,09,6.40
2006,02,04,07,10,6.40
2006,02,04,07,11,4.30
2006,02,04,07,12,3.10
2006,02,04,07,13,8.60
2006,02,04,07,14,9.10
2006,02,04,07,15,5.60
2006,02,04,07,16,6.70
2006,02,04,07,17,5.70
2006,02,04,07,18,9.10
2006,02,04,07,19,6.70
2006,02,04,07,20,6.70
2006,02,04,07,21,8.90
2006,02,04,07,22,5.90
2006,02,04,07,23,7.10
2006,02,04,07,24,8.30
2006,02,04,07,25,6.80
2006,02,04,07,26,5.20
2006,02,04,07,27,7.50
2006,02,04,07,28,6.20
2006,02,04,07,29,5.60
2006,02,04,07,30,5.00
2006,02,04,07,31,7.40
2006,02,04,07,32,6.00
2006,02,04,07,33,7.20
2006,02,04,07,34,5.60
2006,02,04,07,35,5.40
2006,02,04,07,36,8.90
2006,02,04,07,37,4.40
2006,02,04,07,38,5.50
2006,02,04,07,39,5.80
2006,02,04,07,40,5.60
2006,02,04,07,41,5.00
2006,02,04,07,42,5.50
2006,02,04,07,43,6.40
2006,02,04,07,44,8.20
2006,02,04,07,45,7.40
2006,02,04,07,46,5.90
2006,02,04,07,47,6.50
2006,02,04,07,48,5.60
2006,02,04,07,49,4.30
2006,02,04,07,50,5.70
2006,02,04,07,51,4.60
2006,02,04,07,52,2.80
2006,02,04,07,53,6.90
2006,02,04,07,54,5.40
2006,02,04,07,55,2.80
2006,02,04,07,56,2.70
2006,02,04,07,57,3.40
2006,02,04,07,58,4.30
2006,02,04,07,59,7.10
2006,02,04,08,00,6.40
2006,02,04,08,01,6.40
2006,02,04,08,02,6.80
2006,02,04,08,03,6.60
2006,02,04,08,04,7.40
2006,02,04,08,05,8.30
2006,02,04,08,06,4.30
2006,02,04,08,07,6.50
2006,02,04,08,08,5.30
2006,02,04,08,09,3.10
2006,02,04,08,10,5.60
2006,02,04,08,11,5.80
2006,02,04,08,12,5.40
2006,02,04,08,13,6.90
2006,02,04,08,14,4.40
2006,02,04,08,15,4.90
2006,02,04,08,16,3.80
2006,02,04,08,17,6.10
2006,02,04,08,18,3.40
2006,02,04,08,19,4.00
2006,02,04,08,20,3.80
2006,02,04,08,21,4.70
2006,02,04,08,22,5.80
2006,02,04,08,23,5.00
2006,02,04,08,24,3.40
2006,02,04,08,25,4.00
2006,02,04,08,26,2.90
2006,02,04,08,27,4.10
2006,02,04,08,28,4.30
2006,02,04,08,29,2.90
2006,02,04,08,30,2.40
2006,02,04,08,31,4.50
2006,02,04,08,32,5.50
2006,02,04,08,33,7.80
2006,02,04,08,34,5.40
2006,02,04,08,35,5.00
2006,02,04,08,36,11.20
2006,02,04,08,37,8.00
2006,02,04,08,38,3.30
2006,02,04,08,39,3.90
2006,02,04,08,40,5.60
2006,02,04,08,41,7.30
2006,02,04,08,42,8.30
2006,02,04,08,43,14.40
2006,02,04,08,44,11.60
2006,02,04,08,45,8.30
2006,02,04,08,46,12.90
2006,02,04,08,47,11.60
2006,02,04,08,48,11.10
2006,02,04,08,49,9.20
2006,02,04,08,50,6.40
2006,02,04,08,51,11.70
2006,02,04,08,52,14.10
2006,02,04,08,53,11.40
2006,02,04,08,54,12.30
2006,02,04,08,55,7.90
2006,02,04,08,56,6.10
2006,02,04,08,57,7.30
2006,02,04,08,58,6.90
2006,02,04,08,59,6.00
2006,02,04,09,00,7.20
2006,02,04,09,01,6.90
2006,02,04,09,02,6.80
2006,02,04,09,03,3.40
2006,02,04,09,04,5.50
2006,02,04,09,05,5.40
2006,02,04,09,06,3.40
2006,02,04,09,07,5.20
2006,02,04,09,08,9.90
2006,02,04,09,09,11.70
2006,02,04,09,10,12.70
2006,02,04,09,11,6.20
2006,02,04,09,12,9.00
2006,02,04,09,13,8.40
2006,02,04,09,14,7.70
2006,02,04,09,15,5.90
2006,02,04,09,16,7.10
2006,02,04,09,17,6.70
2006,02,04,09,18,5.00
2006,02,04,09,19,3.90
2006,02,04,09,20,6.70
2006,02,04,09,21,11.10
2006,02,04,09,22,16.20
2006,02,04,09,23,7.60
2006,02,04,09,24,10.20
2006,02,04,09,25,5.00
2006,02,04,09,26,5.20
2006,02,04,09,27,10.80
2006,02,04,09,28,14.70
2006,02,04,09,29,3.10
2006,02,04,09,30,4.20
2006,02,04,09,31,4.50
2006,02,04,09,32,10.50
2006,02,04,09,33,8.30
2006,02,04,09,34,16.00
2006,02,04,09,35,10.10
2006,02,04,09,36,6.20
2006,02,04,09,37,5.70
2006,02,04,09,38,9.00
2006,02,04,09,39,20.00
2006,02,04,09,40,9.50
2006,02,04,09,41,10.20
2006,02,04,09,42,12.40
2006,02,04,09,43,9.10
2006,02,04,09,44,19.80
2006,02,04,09,45,19.60
2006,02,04,09,46,8.30
2006,02,04,09,47,12.30
2006,02,04,09,48,16.00
2006,02,04,09,49,6.80
2006,02,04,09,50,9.10
2006,02,04,09,51,13.50
2006,02,04,09,52,10.10
2006,02,04,09,53,21.00
2006,02,04,09,54,12.90
2006,02,04,09,55,15.80
2006,02,04,09,56,13.00
2006,02,04,09,57,7.90
2006,02,04,09,58,11.30
2006,02,04,09,59,7.10
2006,02,04,10,00,11.40
2006,02,04,10,01,8.10
2006,02,04,10,02,12.00
2006,02,04,10,03,15.30
2006,02,04,10,04,7.80
2006,02,04,10,05,9.00
2006,02,04,10,06,16.10
2006,02,04,10,07,14.90
2006,02,04,10,08,6.30
2006,02,04,10,09,12.00
2006,02,04,10,10,9.00
2006,02,04,10,11,15.40
2006,02,04,10,12,9.10
2006,02,04,10,13,9.40
2006,02,04,10,14,15.90
2006,02,04,10,15,19.20
2006,02,04,10,16,23.70
2006,02,04,10,17,22.90
2006,02,04,10,18,16.50
2006,02,04,10,19,24.20
2006,02,04,10,20,17.30
2006,02,04,10,21,25.20
2006,02,04,10,22,19.10
2006,02,04,10,23,19.30
2006,02,04,10,24,19.50
2006,02,04,10,25,13.20
2006,02,04,10,26,20.10
2006,02,04,10,27,16.90
2006,02,04,10,28,22.70
2006,02,04,10,29,21.20
2006,02,04,10,30,19.60
2006,02,04,10,31,15.00
2006,02,04,10,32,14.10
2006,02,04,10,33,8.50
2006,02,04,10,34,15.70
2006,02,04,10,35,15.10
2006,02,04,10,36,18.70
2006,02,04,10,37,14.60
2006,02,04,10,38,17.90
2006,02,04,10,39,8.90
2006,02,04,10,40,15.80
2006,02,04,10,41,13.60
2006,02,04,10,42,14.00
2006,02,04,10,43,21.50
2006,02,04,10,44,21.40
2006,02,04,10,45,14.40
2006,02,04,10,46,6.00
2006,02,04,10,47,16.40
2006,02,04,10,48,8.50
2006,02,04,10,49,7.40
2006,02,04,10,50,17.00
2006,02,04,10,51,12.90
2006,02,04,10,52,7.40
2006,02,04,10,53,6.90
2006,02,04,10,54,19.20
2006,02,04,10,55,18.70
2006,02,04,10,56,15.80
2006,02,04,10,57,8.10
2006,02,04,10,58,8.00
2006,02,04,10,59,9.30
2006,02,04,11,00,9.90
2006,02,04,11,01,11.30
2006,02,04,11,02,14.80
2006,02,04,11,03,15.70
2006,02,04,11,04,13.00
2006,02,04,11,05,22.30
2006,02,04,11,06,9.10
2006,02,04,11,07,16.40
2006,02,04,11,08,14.20
2006,02,04,11,09,17.60
2006,02,04,11,10,17.30
2006,02,04,11,11,11.20
2006,02,04,11,12,7.60
2006,02,04,11,13,6.30
2006,02,04,11,14,10.20
2006,02,04,11,15,11.80
2006,02,04,11,16,12.70
2006,02,04,11,17,8.80
2006,02,04,11,18,14.30
2006,02,04,11,19,17.30
2006,02,04,11,20,16.20
2006,02,04,11,21,13.20
2006,02,04,11,22,14.60
2006,02,04,11,23,11.50
2006,02,04,11,24,7.10
2006,02,04,11,25,12.70
2006,02,04,11,26,11.50
2006,02,04,11,27,10.80
2006,02,04,11,28,10.20
2006,02,04,11,29,18.20
2006,02,04,11,30,17.90
2006,02,04,11,31,12.70
2006,02,04,11,32,9.40
2006,02,04,11,33,13.90
2006,02,04,11,34,19.00
2006,02,04,11,35,14.00
2006,02,04,11,36,22.90
2006,02,04,11,37,18.70
2006,02,04,11,38,14.00
2006,02,04,11,39,11.10
2006,02,04,11,40,17.60
2006,02,04,11,41,20.00
2006,02,04,11,42,13.50
2006,02,04,11,43,22.10
2006,02,04,11,44,12.70
2006,02,04,11,45,12.80
2006,02,04,11,46,11.60
2006,02,04,11,47,17.30
2006,02,04,11,48,21.90
2006,02,04,11,49,17.60
2006,02,04,11,50,8.60
2006,02,04,11,51,11.30
2006,02,04,11,52,15.70
2006,02,04,11,53,14.10
2006,02,04,11,54,19.30
2006,02,04,11,55,25.60
2006,02,04,11,56,15.90
2006,02,04,11,57,13.60
2006,02,04,11,58,12.00
2006,02,04,11,59,10.00
2006,02,04,12,00,16.40
2006,02,04,12,01,17.50
2006,02,04,12,02,21.30
2006,02,04,12,03,14.50
2006,02,04,12,04,18.80
2006,02,04,12,05,16.50
2006,02,04,12,06,15.00
2006,02,04,12,07,21.70
2006,02,04,12,08,25.60
2006,02,04,12,09,14.30
2006,02,04,12,10,13.20
2006,02,04,12,11,14.50
2006,02,04,12,12,14.90
2006,02,04,14,16,13.60
2006,02,04,14,17,12.90
2006,02,04,14,18,14.60
2006,02,04,14,19,9.80
2006,02,04,14,20,14.10
2006,02,04,14,21,16.30
2006,02,04,14,22,13.80
2006,02,04,14,23,21.00
2006,02,04,14,24,17.30
2006,02,04,14,25,16.40
2006,02,04,14,26,10.80
2006,02,04,14,27,22.90
2006,02,04,14,28,13.80
2006,02,04,14,29,20.00
2006,02,04,14,30,18.00
2006,02,04,14,31,14.60
2006,02,04,14,32,17.00
2006,02,04,14,33,17.30
2006,02,04,14,34,19.30
2006,02,04,14,35,15.20
2006,02,04,14,36,14.20
2006,02,04,14,37,15.30
2006,02,04,14,38,19.30
2006,02,04,14,39,11.70
2006,02,04,14,40,23.80
2006,02,04,14,41,15.00
2006,02,04,14,42,13.30
2006,02,04,14,43,20.20
2006,02,04,14,44,10.00
2006,02,04,14,45,20.60
2006,02,04,14,46,24.80
2006,02,04,14,47,21.10
2006,02,04,14,48,17.80
2006,02,04,14,49,22.50
2006,02,04,14,50,16.90
2006,02,04,14,51,8.50
2006,02,04,14,52,22.80
2006,02,04,14,53,13.70
2006,02,04,14,54,8.70
2006,02,04,14,55,11.40
2006,02,04,14,56,18.20
2006,02,04,14,57,16.60
2006,02,04,14,58,14.60
2006,02,04,14,59,10.60
2006,02,04,15,00,11.50
2006,02,04,15,01,16.00
2006,02,04,15,02,26.00
2006,02,04,15,03,16.50
2006,02,04,15,04,19.20
2006,02,04,15,05,20.10
2006,02,04,15,06,17.80
2006,02,04,15,07,15.70
2006,02,04,15,08,13.40
2006,02,04,15,09,18.70
2006,02,04,15,10,16.40
2006,02,04,15,11,16.20
2006,02,04,15,12,17.50
2006,02,04,15,13,19.10
2006,02,04,15,14,27.90
2006,02,04,15,15,21.70
2006,02,04,15,16,8.80
2006,02,04,15,17,24.80
2006,02,04,15,18,12.00
2006,02,04,15,19,19.60
2006,02,04,15,20,13.60
2006,02,04,15,21,13.30
2006,02,04,15,22,37.40
2006,02,04,15,23,27.40
2006,02,04,15,24,21.20
2006,02,04,15,25,12.30
2006,02,04,15,26,9.60
2006,02,04,15,27,18.00
2006,02,04,15,28,20.90
2006,02,04,15,29,21.50
2006,02,04,15,30,24.40
2006,02,04,15,31,23.10
2006,02,04,15,32,17.90
2006,02,04,15,33,14.70
2006,02,04,15,34,17.40
2006,02,04,15,35,11.70
2006,02,04,15,36,25.40
2006,02,04,15,37,15.00
2006,02,04,15,38,19.10
2006,02,04,15,39,17.00
2006,02,04,15,40,25.50
2006,02,04,15,41,22.10
2006,02,04,15,42,17.10
2006,02,04,15,43,11.50
2006,02,04,15,44,17.40
2006,02,04,15,45,23.80
2006,02,04,15,46,17.80
2006,02,04,15,47,18.70
2006,02,04,15,48,17.70
2006,02,04,15,49,13.70
2006,02,04,15,50,9.80
2006,02,04,15,51,10.80
2006,02,04,15,52,19.70
2006,02,04,15,53,10.80
2006,02,04,15,54,14.60
2006,02,04,15,55,13.70
2006,02,04,15,56,16.80
2006,02,04,15,57,12.40
2006,02,04,15,58,16.80
2006,02,04,15,59,18.50
2006,02,04,16,00,11.40
2006,02,04,16,01,25.90
2006,02,04,16,02,15.10
2006,02,04,16,03,15.70
2006,02,04,16,04,18.20
2006,02,04,16,05,20.30
2006,02,04,16,06,13.20
2006,02,04,16,07,8.70
2006,02,04,16,08,14.00
2006,02,04,16,09,9.40
2006,02,04,16,10,11.40
2006,02,04,16,11,9.50
2006,02,04,16,12,15.50
2006,02,04,16,13,15.90
2006,02,04,16,14,20.80
2006,02,04,16,15,17.40
2006,02,04,16,16,15.70
2006,02,04,16,17,9.00
2006,02,04,16,18,6.40
2006,02,04,16,19,14.80
2006,02,04,16,20,12.90
2006,02,04,16,21,16.20
2006,02,04,16,22,14.10
2006,02,04,16,23,13.20
2006,02,04,16,24,21.70
2006,02,04,16,25,15.00
2006,02,04,16,26,12.00
2006,02,04,16,27,16.10
2006,02,04,16,28,7.50
2006,02,04,16,29,8.50
2006,02,04,16,30,15.80
2006,02,04,16,31,19.70
2006,02,04,16,32,11.90
2006,02,04,16,33,16.50
2006,02,04,16,34,14.60
2006,02,04,16,35,16.20
2006,02,04,16,36,14.00
2006,02,04,16,37,6.70
2006,02,04,16,38,12.60
2006,02,04,16,39,12.50
2006,02,04,16,40,9.80
2006,02,04,16,41,7.40
2006,02,04,16,42,8.50
2006,02,04,16,43,6.20
2006,02,04,16,44,8.30
2006,02,04,16,45,4.20
2006,02,04,16,46,8.10
2006,02,04,16,47,12.50
2006,02,04,16,48,15.50
2006,02,04,16,49,13.90
2006,02,04,16,50,6.90
2006,02,04,16,51,6.40
2006,02,04,16,52,13.30
2006,02,04,16,53,13.70
2006,02,04,16,54,5.60
2006,02,04,16,55,15.70
2006,02,04,16,56,20.70
2006,02,04,16,57,10.80
2006,02,04,16,58,18.30
2006,02,04,16,59,17.20
2006,02,04,17,00,16.40
2006,02,04,17,01,22.40
2006,02,04,17,02,11.40
2006,02,04,17,03,15.30
2006,02,04,17,04,12.30
2006,02,04,17,05,10.60
2006,02,04,17,06,2.90
2006,02,04,17,07,10.10
2006,02,04,17,08,12.10
2006,02,04,17,09,8.50
2006,02,04,17,10,11.90
2006,02,04,17,11,17.50
2006,02,04,17,12,6.40
2006,02,04,17,13,8.40
2006,02,04,17,14,16.60
2006,02,04,17,15,15.00
2006,02,04,17,16,14.60
2006,02,04,17,17,5.90
2006,02,04,17,18,10.70
2006,02,04,17,19,12.30
2006,02,04,17,20,15.00
2006,02,04,17,21,8.20
2006,02,04,17,22,14.20
2006,02,04,17,23,16.20
2006,02,04,17,24,9.30
2006,02,04,17,25,7.10
2006,02,04,17,26,5.80
2006,02,04,17,27,1.50
2006,02,04,17,28,12.40
2006,02,04,17,29,10.10
2006,02,04,17,30,5.40
2006,02,04,17,31,13.30
2006,02,04,17,32,13.60
2006,02,04,17,33,9.90
2006,02,04,17,34,4.80
2006,02,04,17,35,2.60
2006,02,04,17,36,5.60
2006,02,04,17,37,4.20
2006,02,04,17,38,2.80
2006,02,04,17,39,7.00
2006,02,04,17,40,10.40
2006,02,04,17,41,8.10
2006,02,04,17,42,12.20
2006,02,04,17,43,7.10
2006,02,04,17,44,8.20
2006,02,04,17,45,5.00
2006,02,04,17,46,6.90
2006,02,04,17,47,12.50
2006,02,04,17,48,7.30
2006,02,04,17,49,7.80
2006,02,04,17,50,5.30
2006,02,04,17,51,2.00
2006,02,04,17,52,6.40
2006,02,04,17,53,6.70
2006,02,04,17,54,6.90
2006,02,04,17,55,6.40
2006,02,04,17,56,8.00
2006,02,04,17,57,2.10
2006,02,04,17,58,9.60
2006,02,04,17,59,2.20
2006,02,04,18,00,7.20
2006,02,04,18,01,10.60
2006,02,04,18,02,8.00
2006,02,04,18,03,6.20
2006,02,04,18,04,3.40
2006,02,04,18,05,9.90
2006,02,04,18,06,9.10
2006,02,04,18,07,4.50
2006,02,04,18,08,7.30
2006,02,04,18,09,9.10
2006,02,04,18,10,8.90
2006,02,04,18,11,5.70
2006,02,04,18,12,14.10
2006,02,04,18,13,11.20
2006,02,04,18,14,7.40
2006,02,04,18,15,13.10
2006,02,04,18,16,8.30
2006,02,04,18,17,11.30
2006,02,04,18,18,17.10
2006,02,04,18,19,9.70
2006,02,04,18,20,5.50
2006,02,04,18,21,4.80
2006,02,04,18,22,19.40
2006,02,04,18,23,7.80
2006,02,04,18,24,5.10
2006,02,04,18,25,6.40
2006,02,04,18,26,7.20
2006,02,04,18,27,8.00
2006,02,04,18,28,8.50
2006,02,04,18,29,7.10
2006,02,04,18,30,9.10
2006,02,04,18,31,13.40
2006,02,04,18,32,13.20
2006,02,04,18,33,12.20
2006,02,04,18,34,11.90
2006,02,04,18,35,11.00
2006,02,04,18,36,10.80
2006,02,04,18,37,5.90
2006,02,04,18,38,7.20
2006,02,04,18,39,5.80
2006,02,04,18,40,5.50
2006,02,04,18,41,5.00
2006,02,04,18,42,8.50
2006,02,04,18,43,11.80
2006,02,04,18,44,3.10
2006,02,04,18,45,5.40
2006,02,04,18,46,5.60
2006,02,04,18,47,7.90
2006,02,04,18,48,9.10
2006,02,04,18,49,4.50
2006,02,04,18,50,6.90
2006,02,04,18,51,2.20
2006,02,04,18,52,5.60
2006,02,04,18,53,8.10
2006,02,04,18,54,11.20
2006,02,04,18,55,8.70
2006,02,04,18,56,5.40
2006,02,04,18,57,4.80
2006,02,04,18,58,4.70
2006,02,04,18,59,7.80
2006,02,04,19,00,5.90
2006,02,04,19,01,7.80
2006,02,04,19,02,4.50
2006,02,04,19,03,2.00
2006,02,04,19,04,7.40
2006,02,04,19,05,2.00
2006,02,04,19,06,2.20
2006,02,04,19,07,1.90
2006,02,04,19,08,3.70
2006,02,04,19,09,2.70
2006,02,04,19,10,2.60
2006,02,04,19,11,2.30
2006,02,04,19,12,3.20
2006,02,04,19,13,5.10
2006,02,04,19,14,2.40
2006,02,04,19,15,5.50
2006,02,04,19,16,4.60
2006,02,04,19,17,5.30
2006,02,04,19,18,2.20
2006,02,04,19,19,2.30
2006,02,04,19,20,1.30
2006,02,04,19,21,5.40
2006,02,04,19,22,5.00
2006,02,04,19,23,8.70
2006,02,04,19,24,6.20
2006,02,04,19,25,3.90
2006,02,04,19,26,4.30
2006,02,04,19,27,5.10
2006,02,04,19,28,7.80
2006,02,04,19,29,4.70
2006,02,04,19,30,4.50
2006,02,04,19,31,1.80
2006,02,04,19,32,3.80
2006,02,04,19,33,2.70
2006,02,04,19,34,3.70
2006,02,04,19,35,3.70
2006,02,04,19,36,7.00
2006,02,04,19,37,7.40
2006,02,04,19,38,3.30
2006,02,04,19,39,4.90
2006,02,04,19,40,6.30
2006,02,04,19,41,7.40
2006,02,04,19,42,6.10
2006,02,04,19,43,3.90
2006,02,04,19,44,7.80
2006,02,04,19,45,4.00
2006,02,04,19,46,4.10
2006,02,04,19,47,3.40
2006,02,04,19,48,1.20
2006,02,04,19,49,2.80
2006,02,04,19,50,3.60
2006,02,04,19,51,4.50
2006,02,04,19,52,2.00
2006,02,04,19,53,1.00
2006,02,04,19,54,1.80